Regional Weather Roundup
Issued by NWS

Home | Current Version | Previous Version | Graphics & Text | Print | Product List | Glossary On
Versions: 1 2 3 4 5 6 7 8 9 10 11 12 13 14 15 16 17 18 19 20 21 22 23 24 25 26 27 28 29 30 31 32 33 34 35 36 37 38 39 40 41 42 43 44 45 46 47 48 49 50
000
ASUS43 KTOP 291959
RWRKS

WEATHER ROUNDUP FOR KANSAS
NATIONAL WEATHER SERVICE GOODLAND KS
300 PM CDT SUN MAR 29 2015

NOTE:  "FAIR" INDICATES FEW OR NO CLOUDS BELOW 12,000 FEET WITH NO
SIGNIFICANT WEATHER AND/OR OBSTRUCTIONS TO VISIBILITY.

KSZ001>006-013>018-027>032-041>047-292100-
NORTHWEST KANSAS

CITY           SKY/WX    TMP DP  RH WIND       PRES   REMARKS
GOODLAND       SUNNY     64  21  19 N23G31    30.20F
HAYS           SUNNY     70  27  19 N24G35    30.13F
HILL CITY      SUNNY     67  25  20 N22G33    30.16F
RUSSELL        SUNNY     69  29  22 N23G38    30.10F
$$

KSZ061>065-074>080-084>089-292100-
SOUTHWEST KANSAS

CITY           SKY/WX    TMP DP  RH WIND       PRES   REMARKS
DODGE CITY     MOSUNNY   71  27  19 N26G35    30.15F
ELKHART          N/A     69  24  18 N14         N/A
GARDEN CITY    SUNNY     68  26  20 N22G33    30.17S
GREAT BEND     SUNNY     70  30  23 N25G33    30.11F
LIBERAL        MOSUNNY   72  30  21 N22G29    30.19F
$$

KSZ066>073-081>083-090>101-292100-
SOUTHEAST KANSAS

CITY           SKY/WX    TMP DP  RH WIND       PRES   REMARKS
CHANUTE        PTSUNNY   63  45  51 S3        30.02F
COFFEYVILLE    CLOUDY    59  42  53 SW5       30.05S
HUTCHINSON     MOSUNNY   72  31  22 N21G32    30.07S
MEDICINE LODGE   N/A     73  28  18 N16G29    30.07F
NEWTON         MOSUNNY   72  34  25 NW18G28   30.07F
PARSONS        CLOUDY    59  43  55 S3        30.04F
WICHITA INTL   PTSUNNY   74  33  22 N15G26    30.04F
WICHITA JABRA  PTSUNNY   74  34  23 N20G26    30.04F
WINFIELD       PTSUNNY   73  38  27 N23G31    30.04S
$$

KSZ007>012-019>026-033>040-048>060-102>105-292100-
NORTHEAST KANSAS

CITY           SKY/WX    TMP DP  RH WIND       PRES   REMARKS
CONCORDIA      SUNNY     68  34  28 N22G33    30.07S
EMPORIA        PTSUNNY   69  34  27 NW22      30.01F
LAWRENCE       CLOUDY    70  39  32 NW18      29.99F
OLATHE IND     PTSUNNY   64  41  42 NW15      30.00S
OLATHE EXE     PTSUNNY   63  40  42 NW16G23   29.98S
SALINA         SUNNY     73  36  25 NW24G33   30.06F
TOPEKA BILLARD MOSUNNY   69  40  34 NW20G35   30.01R
TOPEKA FORBES  MOSUNNY   72  39  30 N23G35    30.00F
$$



USA.gov is the U.S. government's official web portal to all federal, state and local government web resources and services.